Portada
METAR-TAF:

METAR-TAF

Aeroports :

Sparta, Wisconsin, Estats Units d'Amèrica

latitud: 43-57-30N, longitud: 090-44-16W, altitud: 255 m

Observació

L'informe es va fer fa 24 minuts, a les 00:15 UTC
Vent calma
Temperatura -14°C
Humitat 78%
Pressió 1024 hPa
Visibilitat: 16.1 km
Cel clar

METAR: KCMY 200015Z AUTO 00000KT 10SM CLR M14/M17 A3023 RMK AO2 T11361173

Hora: 18:39 (00:39 UTC)


TAF: manca

Observacions i pronòstics meteorològics de més de 4000 aeroports (METAR i TAF).

Les estacions disponibles són els punts grocs i vermells al mapa.

Posi el ratolí al punt desitjat per veure el nom de l'estació.

Feu clic per veure les observacions i els pronòstics meteorològics.

Per canviar el mapa: feu clic els botons verds amb una creu de color negre per apropar; al botó verd amb un guió per allunyar la imatge; o en les fletxes verdes per a mapes adjacents.


METAR-TAF: